User: anonymous   Login
Location: Unspecified
(0.0000°N, 0.0000°E)
Time: 18:17:02
(UTC+00:00)
Language:

NANOSAT-1 - Orbit

View from above orbital plane
View from above orbital plane
View from above satellite
View from above satellite

Ground track
Ground track

The orbit data is extracted from the following two-line orbital elements,

1 28493U 04049B   19085.22178141  .00000041  00000-0  14220-4 0  9990
2 28493  98.1387 169.1198 0005893  98.5922 261.5953 14.73486527766208
Epoch (UTC): 26 March 2019 05:19:21
Eccentricity: 0.0005893
inclination: 98.1387°
perigee height: 646 km
apogee height: 654 km
right ascension of ascending node: 169.1198°
argument of perigee: 98.5922°
revolutions per day: 14.73486527
mean anomaly at epoch: 261.5953°
orbit number at epoch: 76620

The dashed part of the orbit path shows where the satellite is in the earth's shadow,  

DLR